Regional Weather Roundup
Issued by NWS

Home | Current Version | Previous Version | Graphics & Text | Print | Product List | Glossary Off
Versions: 1 2 3 4 5 6 7 8 9 10 11 12 13 14 15 16 17 18 19 20 21 22 23 24 25 26 27 28 29 30 31 32 33 34 35 36 37 38 39 40 41 42 43 44 45 46 47 48 49 50

000
ASUS43 KMKX 240100
RWRWI

WISCONSIN REGIONAL WEATHER ROUNDUP
NATIONAL WEATHER SERVICE MILWAUKEE/SULLIVAN WI
800 PM CDT THU MAR 23 2017

NOTE: "FAIR" INDICATES FEW OR NO CLOUDS BELOW 12,000 FEET WITH NO
SIGNIFICANT WEATHER AND/OR OBSTRUCTIONS TO VISIBILITY.

WIZ001-002-006>008-014>016-023>028-240200-
NORTHWEST WISCONSIN

CITY           SKY/WX    TMP DP  RH WIND       PRES   REMARKS
SUPERIOR ARPT  DRIZZLE   33  31  93 E5        29.87F WCI  29
ASHLAND        LGT RAIN  36  27  69 CALM      29.88F
HAYWARD        TSTM      37  27  67 SW3       29.87S
SIREN          MIX PCPN  35  30  83 CALM      29.88R
CUMBERLAND     CLOUDY    34  28  80 S3        29.86R
RICE LAKE      CLOUDY    39  26  60 S7        29.88R WCI  34
CHETEK         CLOUDY    39  27  61 SE8       29.86R WCI  34
LADYSMITH      CLOUDY    38  25  59 SE7       29.88F WCI  33
EAU CLAIRE     CLOUDY    42  28  57 S9        29.89R
MENOMONIE      CLOUDY    42  29  62 SE12      29.89R
NEW RICHMOND   CLOUDY    39  28  64 S9        29.84F WCI  33
OSCEOLA        CLOUDY    39  31  71 S5        29.88S
$$

WIZ003>005-009-010-017-018-240200-
NORTH CENTRAL WISCONSIN

CITY           SKY/WX    TMP DP  RH WIND       PRES   REMARKS
MANITOWISH WTR CLOUDY    34  27  75 S6        29.90S WCI  29
ARBOR VITAE    CLOUDY    37  28  71 S5        29.91R WCI  33
WOODRUFF       CLOUDY    37  28  71 S5        29.91R WCI  33
RHINELANDER    CLOUDY    37  24  59 VRB3      29.92R
EAGLE RIVER    CLOUDY    33  24  68 CALM      29.93R
LAND O LAKES   CLOUDY    34  24  67 S3        29.94R
PHILLIPS       CLOUDY    36  24  63 S8        29.89S WCI  29
TOMAHAWK       CLOUDY    36  22  58 S6        29.91S WCI  31
MEDFORD        CLOUDY    36  24  62 SE13      29.88F WCI  27
MERRILL        CLOUDY    37  24  58 S8G17     29.93S WCI  31
$$

WIZ029-030-035-036-043>047-240200-
CENTRAL WISCONSIN

CITY           SKY/WX    TMP DP  RH WIND       PRES   REMARKS
WAUSAU         LGT RAIN  38  24  57 SE12      29.91F WCI  30
MOSINEE        TSTM      37  23  56 SE10      29.93F WCI  30
MARSHFIELD     CLOUDY    37  28  70 SE12      29.87F WCI  29
STEVENS POINT  CLOUDY    38  24  57 SE8       29.95F WCI  32
WAUPACA        RAIN      38  30  73 E6        30.05S WCI  34
WAUTOMA        LGT RAIN  39  30  70 VRB5      29.93F
WISC RAPIDS    LGT RAIN  40  30  67 S7        29.95S
CAMP DOUGLAS   CLOUDY    39  32  75 SE13      29.91F WCI  32
$$

WIZ011>013-019>022-031-037>040-048>050-240200-
NORTHEAST WISCONSIN

CITY           SKY/WX    TMP DP  RH WIND       PRES   REMARKS
ANTIGO         CLOUDY    34  25  70 SE16      29.95F WCI  24
SHAWANO        CLOUDY    38  27  65 SE6       30.05F WCI  33
OCONTO         CLOUDY    35  26  68 S10       30.07R WCI  27
STURGEON BAY   LGT RAIN  36  24  62 S13       30.08R WCI  27
GREEN BAY      CLOUDY    37  29  72 S12       30.06S WCI  29
MANITOWOC      NOT AVBL
APPLETON       LGT RAIN  36  25  64 SE12      30.04F WCI  27
CLINTONVILLE   CLOUDY    36  27  69 SE6       30.03F WCI  31
OSHKOSH        LGT RAIN  37  29  72 S6        30.06F WCI  32
$$

WIZ032>034-041-042-053>061-240200-
SOUTHWEST WISCONSIN

CITY           SKY/WX    TMP DP  RH WIND       PRES   REMARKS
LA CROSSE      CLOUDY    40  36  86 SE10      29.88F WCI  33
SPARTA         CLOUDY    39  36  87 SE8       29.91S WCI  33
VIROQUA        MOCLDY    36  35  96 SE14G30   29.89F WCI  27
BOSCOBEL       CLOUDY    40  33  76 VRB5      29.91F
PRAIRIE DU CHI CLOUDY    37  36  96 E10       29.90F WCI  29
PLATTEVILLE    MOCLDY    40  34  78 E9        29.98R WCI  34
$$

WIZ056-057-062-063-064-067-068-240200-
SOUTH CENTRAL WISCONSIN

CITY           SKY/WX    TMP DP  RH WIND       PRES   REMARKS
REEDSBURG      RAIN      36  36 100 SE9       29.93F WCI  29
BARABOO/DELLS  TSTM      37  32  85 SE8       29.97F WCI  30
LONE ROCK      NOT AVBL
MINERAL POINT  CLOUDY    39  36  87 SE12      29.98R WCI  32
MADISON        CLOUDY    38  35  89 SE14      30.00R THUNDER WCI  30
MIDDLETON      CLOUDY    38  35  88 E10G37    30.03R WCI  31
WATERTOWN      TSTM      40  31  70 CALM      30.06R
MONROE         CLOUDY    39  34  81 SE15      29.99F WCI  31
JANESVILLE     CLOUDY    45  34  65 S8        30.02R
$$

WIZ051-052-058>065-066-070>072-240200-
SOUTHEAST WISCONSIN

CITY           SKY/WX    TMP DP  RH WIND       PRES   REMARKS
MILWAUKEE      LGT RAIN  44  29  55 SE14G21   30.03R
WAUKESHA       TSTM      39  28  65 SW10      30.08R WCI  32
MILWAUKEE/TIMM CLOUDY    43  25  49 SE7       30.06R
RACINE         LGT RAIN  41  31  67 S14G23    30.04R
KENOSHA        LGT RAIN  43  31  62 SE15      30.00F
FOND DU LAC    RAIN      38  28  67 SE9       30.07S WCI  31
SHEBOYGAN      LGT RAIN  38  27  64 S7        30.11R WCI  33
WEST BEND      CLOUDY    37  27  65 SE5       30.05R WCI  34
JUNEAU         RAIN      38  29  70 CALM      30.09R
$$

LSZ147-162-240200-
LAKE SUPERIOR

STATION/POSITION TIME  TEMP    WIND        PRES    WAVE
                       AIR SEA DIR/SP/G            HT/PER
                 (UTC) (F)     (DEG/KT/KT) (MB)    (FT/S)
DEVILS ISLAND    0000   34      70/  6/  6 1013.7F
PORT WING        0040   36      80/  2/  3 1012.2S
SAXON HARBOR     0030   35     200/  1/  3 1012.5F
$$

LMZ867-665-643>646-240200-
LAKE MICHIGAN

STATION/POSITION TIME  TEMP    WIND        PRES    WAVE
                       AIR SEA DIR/SP/G            HT/PER
                 (UTC) (F)     (DEG/KT/KT) (MB)    (FT/S)
CHAMBERS ISLAND  0040   36     180/  7/ 13 1018.3R
NORTHPORT PIER   0040   37     150/  5/  8 1018.3R
SISTER BAY       0005   37     170/ 16/ 22   N/A
KEWAUNEE LAKESHO 0030   38     210/ 13/ 18 1019.6R
SHEBOYGAN LAKESH 0000   38     160/ 24/ 27 1017.6F
PORT WASHINGTON  0030   39     190/ 12/ 16 1019.3R
MILWAUKEE LAKESH 0030   40     150/ 13/ 14   N/A
KENOSHA   LAKESH 0000   40     150/ 23/ 27 1016.3
$$

TC  - TEMPERATURE IN CELSIUS
VSB - VISIBILITY IN STATUTE MILES
WCI - WIND CHILL INDEX
HX  - HEAT INDEX




USA.gov is the U.S. government's official web portal to all federal, state and local government web resources and services.